Regional Weather Roundup
Issued by NWS Cleveland, OH

Home | Current Version | Previous Version | Text Only | Print | Product List | Glossary Off
Versions: 1 2 3 4 5 6 7 8 9 10 11 12 13 14 15 16 17 18 19 20 21 22 23 24 25 26 27 28 29 30 31 32 33 34 35 36 37 38 39 40 41 42 43 44 45 46 47 48 49 50

000
ASUS41 KCLE 021600
RWRCLE
OHIO REGIONAL WEATHER ROUNDUP
NATIONAL WEATHER SERVICE WILMINGTON, OH
1100 AM EST MON MAR 02 2015

NOTE: "FAIR" INDICATES FEW OR NO CLOUDS BELOW 12,000 FEET WITH NO
SIGNIFICANT WEATHER AND/OR OBSTRUCTIONS TO VISIBILITY.

OHZ001>008-015>018-024>027-034-035-043-044-021700-
   NORTHWEST OHIO

CITY           SKY/WX    TMP DP  RH WIND       PRES   REMARKS
DEFIANCE       SUNNY     22  13  68 SW6       30.50R WCI  14
FINDLAY        SUNNY     18  11  74 W12       30.48R WCI   5
TOLEDO EXPRESS SUNNY     23  13  65 W10       30.47R WCI  12
TOLEDO EXEC    SUNNY     20  12  71 SW12      30.48R WCI   8
LIMA           SUNNY     20  13  74 SW6       30.49R WCI  12
$$

OHZ009>014-019>023-028>033-038-089-021700-
   NORTHEAST OHIO

CITY           SKY/WX    TMP DP  RH WIND       PRES   REMARKS
CLE-HOPKINS    MOSUNNY   25  14  63 W10       30.47R WCI  15
CLE-LAKEFRONT  SUNNY     22  16  78 W17       30.45R WCI   8
CUY CO. ARPT   MOSUNNY   27  18  69 W12G21    30.43R WCI  16
LORAIN-ELYRIA  SUNNY     23  14  68 W12       30.45S WCI  12
ASHTABULA      MOSUNNY   24  12  60 W17G25    30.40R WCI  11
AKRON-CANTON   FLURRIES  23  17  78 W9        30.42R WCI  13
WOOSTER        NOT AVBL
MANSFIELD      SUNNY     22  13  68 W9        30.44R WCI  12
YOUNGSTOWN     PTSUNNY   25  12  58 W13       30.39R WCI  14
$$

OHZ042-051>053-060>062-070>072-077>081-021700-
  SOUTHWEST OHIO

CITY           SKY/WX    TMP DP  RH WIND       PRES   REMARKS
CINC-COVINGTON PTSUNNY   29  15  56 N8        30.52S WCI  21
CINC-LUNKEN    SUNNY     29  15  56 CALM      30.57R
HAMILTON       MOSUNNY   25  14  63 VRB3      30.56R
DAYTON         NOT AVBL
WRIGHT-PAT AFB NOT AVBL
DAYTON GENERAL SUNNY     24  14  65 CALM      30.51R
WILMINGTON     SUNNY     25  13  60 NW6       30.51S WCI  18
$$

OHZ036-037-039>041-045>050-054>059-063>069-073>076-082>088-021700-
  CENTRAL AND SOUTHEAST OHIO

CITY           SKY/WX    TMP DP  RH WIND       PRES   REMARKS
COLUMBUS       PTSUNNY   23  14  68 NW3       30.50S
OSU AIRPORT    SUNNY     21  13  71 W5        30.50S WCI  15
BOLTON FIELD   NOT AVBL
RICKENBACK AFB NOT AVBL
NEWARK         SUNNY     25  15  66 W6        30.49R WCI  18
MARION         SUNNY     21  13  71 W8        30.48R HAZE    WCI  11
LANCASTER      SUNNY     23  16  74 W5        30.51R WCI  17
ZANESVILLE     PTSUNNY   25  15  66 NW9       30.48S WCI  15
NEW PHILLY     CLOUDY    26  16  65 NW6       30.47R WCI  19
$$


USA.gov is the U.S. government's official web portal to all federal, state and local government web resources and services.